Location: Feydey
(46.3431°N, 7.0106°E)
Time: 07:10:24
(UTC+00:00)

Cosmos 1943 Rocket - Pass Details

Date: 20 June 2021
Orbit: 813 x 843 km, 71.0° (Epoch: 28 July)

Event Time Altitude Azimuth Distance (km) Brightness Sun altitude
Rises 21:35:08 0° 341° (NNW) 3,348 7.1 -15.2°
Reaches altitude 10° 21:38:23 10° 0° (N) 2,412 5.6 -15.5°
Maximum altitude 21:42:06 18° 43° (NE) 1,908 4.3 -15.8°
Drops below altitude 10° 21:45:48 10° 85° (E) 2,409 4.4 -16.1°
Enters shadow 21:47:30 - 97° (E) 2,874 4.7 -16.2°
